Aérodrome :
LOGIN :

S'inscrire | Disclaimer

   EN    FR    IT 

 










Légende :    VFR   VFR Marginal   IFR   IFR Intensif   IFR Très Intensif
Visi : 
Plafond : 
>= 8 km
>= 3000ft
5 à 8 km
1000 à 3000 ft
1500m à 5 km
500 à 1000 ft
800 à 1500m
200 à 500 ft
< 800m
< 200 ft
Symboles :   Orages  Brouillard  Fortes neiges  Fortes précipitations  Vent > 20 kt
SIGMETs :   Divers  Orages  Givrage  Turbulence  Onde Orograph.  Cendres Volcan.







- Altitude de l'aérodrome : 511 ft
- Code IATA : LHA


EDTL - Lahr Schwarzwald

DERNIER METAR :
  • 261650Z 30007KT 260V330 CAVOK 15/01 Q1019

METARs EXPIRÉS :
  • 261620Z 31007KT 280V350 CAVOK 15/02 Q1019
  • 261550Z 32012KT 280V350 CAVOK 15/02 Q1019
  • 261520Z 28007KT 250V330 CAVOK 16/01 Q1019
  • 261450Z 33007KT 280V030 CAVOK 17/02 Q1019
  • 261420Z 32011KT 000V360 CAVOK 16/00 Q1019

TAF TAF EDTL
Valide du 26 à 15h jusqu'au 27 à 00h UTC


261400Z 2615/2624 30009KT CAVOK
BECMG 2617/2619 35003KT
Pas de NOTAMs connus pour ce terrain.



MET'MAP, la Météo Aéronautique d'un coup d'oeil ! - Copyright ORBIFLY Décembre 2007 - Disclaimer

ORBIFLY MET'MAP TEAM :

Programmation & Développement : Alexandra Zaïnal
Conception & Développement : Baudouin d'Aumeries
Co-Programmation & Développement : Marc-Olivier Méhu
Soutien technique & logistique : Manuel Goepfert

Contact : metmap@orbifly.com




SOURCES & CREDITS :

   NOAA